Location: Running Springs
(34.2078°N, 117.1092°W)
Time: 15:15:22
(UTC+00:00)

YAOGAN 11 - Pass Details

Date: 13 April 2024
Orbit: 606 x 659 km, 98.4° (Epoch: 26 May)

Event Time Altitude Azimuth Distance (km) Brightness Sun altitude
Rises 12:39:58 0° 171° (S) 2,925 7.4 -8.6°
Reaches altitude 10° 12:42:09 10° 174° (S) 2,028 6.6 -8.2°
Maximum altitude 12:46:34 71° 258° (WSW) 689 4.1 -7.3°
Drops below altitude 10° 12:51:04 10° 342° (NNW) 2,069 6.7 -6.4°
Sets 12:53:19 0° 345° (NNW) 2,989 7.6 -6.0°
